Weather History for Blacksburg, VA

Change the Weather History Date:

Sunday, October 30, 2011

  Actual Average Record
Temperature  
Mean Temperature 40 °F 48 °F  
Max Temperature 53 °F 62 °F 80 °F (2004)
Min Temperature 26 °F 35 °F 15 °F (1969)
Degree Days  
Heating Degree Days 25 17  
Month to date heating degree days 364 380  
Since 1 July heating degree days 442 511  
Cooling Degree Days 0 0  
Month to date cooling degree days 0 1  
Year to date cooling degree days 870 570  
Moisture  
Dew Point 31 °F    
Average Humidity 68    
Maximum Humidity 100    
Minimum Humidity 35    
Precipitation  
Precipitation T in 0.10 in 1.20 in (1970)
Month to date precipitation 2.94 2.69  
Year to date precipitation 36.36 34.98  
Snow  
Snow T in - - ()
Month to date snowfall T  
Since 1 July snowfall T  
Since 1 September snowfall T  
Snow Depth 0.00 in    
Sea Level Pressure  
Sea Level Pressure 30.23 in    
Wind  
Wind Speed 2 mph (SW)    
Max Wind Speed 8 mph    
Max Gust Speed -    
Visibility 9 miles    
Events      
T = Trace of Precipitation, MM = Missing Value Source: NWS Daily Summary

Daily Weather History Graph

Daily Weather History Graph

Search for Another Location

Airport:

Trip Planner

Search our weather history database for the weather conditions in past years. The results will help you decide how hot, cold, wet, or windy it might be!

Date:

Astronomy

Oct. 30, 2011 Rise Set
Actual Time 7:43 AM EDT 6:26 PM EDT
Civil Twilight 7:16 AM EDT 6:53 PM EDT
Nautical Twilight 6:46 AM EDT 7:23 PM EDT
Astronomical Twilight 6:15 AM EDT 7:54 PM EDT
Moon 11:57 AM EDT (10/30) 9:57 PM EDT (10/30)
Length of Visible Light 11h 36m
Length of Day
10h 42m
Waxing Crescent, 20% of the Moon is Illuminated
Oct 30
Waxing Crescent
Nov 2
First Quarter
Nov 10
Full
Nov 18
Last Quarter
Nov 25
New

Hourly Weather History & Observations

Time (EDT) Temp. Windchill Dew Point Humidity Pressure Visibility Wind Dir Wind Speed Gust Speed Precip Events Conditions
12:15 AM 35.6 °F - 32.0 °F 87% 30.12 in 10.0 mi Calm Calm - N/A   Clear
12:35 AM 32.0 °F - 30.2 °F 93% 30.12 in 10.0 mi Calm Calm - N/A   Clear
12:55 AM 33.8 °F - 33.8 °F 100% 30.13 in 10.0 mi Calm Calm - N/A   Mostly Cloudy
1:15 AM 35.6 °F - 33.8 °F 93% 30.13 in 10.0 mi Calm Calm - N/A   Overcast
1:35 AM 35.6 °F - 33.8 °F 93% 30.14 in 10.0 mi Calm Calm - N/A   Overcast
1:55 AM 35.6 °F - 33.8 °F 93% 30.15 in 10.0 mi Calm Calm - N/A   Scattered Clouds
2:15 AM 33.8 °F - 33.8 °F 100% 30.15 in 10.0 mi Calm Calm - N/A   Scattered Clouds
2:35 AM 33.8 °F - 33.8 °F 100% 30.14 in 10.0 mi Calm Calm - N/A   Clear
2:55 AM 33.8 °F - 32.0 °F 93% 30.15 in 10.0 mi Calm Calm - N/A   Clear
3:15 AM 32.0 °F - 32.0 °F 100% 30.15 in 10.0 mi Calm Calm - N/A   Clear
3:35 AM 30.2 °F - 30.2 °F 100% 30.16 in 10.0 mi Calm Calm - N/A   Clear
4:15 AM 30.2 °F - 30.2 °F 100% 30.17 in 10.0 mi Calm Calm - N/A   Clear
4:55 AM 30.2 °F - 30.2 °F 100% 30.17 in 10.0 mi Calm Calm - N/A   Clear
5:15 AM 30.2 °F - 30.2 °F 100% 30.18 in 10.0 mi Calm Calm - N/A   Clear
5:35 AM 28.4 °F - 28.4 °F 100% 30.18 in 7.0 mi Calm Calm - N/A   Clear
5:55 AM 28.4 °F - 28.4 °F 100% 30.19 in 7.0 mi Calm Calm - N/A   Clear
6:15 AM 28.4 °F - 28.4 °F 100% 30.21 in 7.0 mi Calm Calm - N/A   Clear
6:35 AM 28.4 °F - 28.4 °F 100% 30.21 in 7.0 mi Calm Calm - N/A   Clear
6:55 AM 28.4 °F - 28.4 °F 100% 30.23 in 5.0 mi Calm Calm - N/A   Clear
7:15 AM 28.4 °F - 28.4 °F 100% 30.24 in 5.0 mi Calm Calm - N/A   Clear
7:35 AM 28.4 °F - 28.4 °F 100% 30.24 in 4.0 mi Calm Calm - N/A   Clear
7:55 AM 28.4 °F - 28.4 °F 100% 30.25 in 4.0 mi Calm Calm - N/A   Clear
8:15 AM 28.4 °F - 28.4 °F 100% 30.26 in 3.0 mi Calm Calm - N/A   Clear
8:35 AM 30.2 °F 26.7 °F 30.2 °F 100% 30.27 in 2.5 mi WNW 3.5 mph - N/A   Clear
8:55 AM 32.0 °F - 32.0 °F 100% 30.28 in 4.0 mi Calm Calm - N/A   Clear
9:15 AM 32.0 °F - 32.0 °F 100% 30.29 in 5.0 mi Calm Calm - N/A   Clear
9:35 AM 35.6 °F 32.8 °F 35.6 °F 100% 30.30 in 7.0 mi West 3.5 mph - N/A   Clear
9:55 AM 37.4 °F - 35.6 °F 93% 30.29 in 10.0 mi Calm Calm - N/A   Clear
10:15 AM 39.2 °F - 37.4 °F 93% 30.29 in 10.0 mi Calm Calm - N/A   Clear
10:35 AM 42.8 °F 40.1 °F 37.4 °F 81% 30.29 in 10.0 mi West 4.6 mph - N/A   Clear
10:55 AM 44.6 °F - 37.4 °F 76% 30.29 in 10.0 mi Calm Calm - N/A   Clear
11:15 AM 46.4 °F 45.2 °F 37.4 °F 71% 30.30 in 10.0 mi West 3.5 mph - N/A   Clear
11:35 AM 48.2 °F - 37.4 °F 66% 30.30 in 10.0 mi West 3.5 mph - N/A   Clear
11:55 AM 50.0 °F - 35.6 °F 58% 30.30 in 10.0 mi NW 3.5 mph - N/A   Clear
12:15 PM 48.2 °F - 35.6 °F 62% 30.30 in 10.0 mi Calm Calm - N/A   Clear
12:35 PM 50.0 °F - 30.2 °F 47% 30.29 in 10.0 mi Calm Calm - N/A   Clear
12:55 PM 51.8 °F - 28.4 °F 41% 30.28 in 10.0 mi NNW 4.6 mph - N/A   Clear
1:15 PM 53.6 °F - 30.2 °F 41% 30.28 in 10.0 mi WNW 4.6 mph - N/A   Clear
1:35 PM 51.8 °F - 28.4 °F 41% 30.27 in 10.0 mi Calm Calm - N/A   Clear
1:55 PM 51.8 °F - 28.4 °F 41% 30.27 in 10.0 mi Calm Calm - N/A   Clear
2:15 PM 53.6 °F - 30.2 °F 41% 30.27 in 10.0 mi West 4.6 mph - N/A   Clear
2:35 PM 53.6 °F - 28.4 °F 38% 30.26 in 10.0 mi SSE 3.5 mph - N/A   Clear
2:55 PM 53.6 °F - 28.4 °F 38% 30.25 in 10.0 mi Calm Calm - N/A   Clear
3:15 PM 53.6 °F - 28.4 °F 38% 30.25 in 10.0 mi ESE 4.6 mph - N/A   Clear
3:35 PM 53.6 °F - 30.2 °F 41% 30.25 in 10.0 mi South 5.8 mph - N/A   Clear
3:55 PM 53.6 °F - 30.2 °F 41% 30.25 in 10.0 mi South 4.6 mph - N/A   Clear
4:15 PM 53.6 °F - 28.4 °F 38% 30.25 in 10.0 mi SSW 4.6 mph - N/A   Clear
4:35 PM 53.6 °F - 26.6 °F 35% 30.25 in 10.0 mi Calm Calm - N/A   Clear
4:55 PM 53.6 °F - 26.6 °F 35% 30.24 in 10.0 mi Calm Calm - N/A   Clear
5:15 PM 53.6 °F - 26.6 °F 35% 30.24 in 10.0 mi Calm Calm - N/A   Clear
5:35 PM 51.8 °F - 28.4 °F 41% 30.24 in 10.0 mi Calm Calm - N/A   Clear
5:55 PM 51.8 °F - 28.4 °F 41% 30.24 in 10.0 mi Calm Calm - N/A   Clear
6:15 PM 48.2 °F - 30.2 °F 50% 30.24 in 10.0 mi Calm Calm - N/A   Clear
6:35 PM 46.4 °F 45.2 °F 30.2 °F 53% 30.25 in 10.0 mi ESE 3.5 mph - N/A   Clear
6:55 PM 46.4 °F 43.5 °F 33.8 °F 62% 30.25 in 10.0 mi SE 5.8 mph - N/A   Clear
7:15 PM 46.4 °F 44.3 °F 33.8 °F 62% 30.26 in 10.0 mi ESE 4.6 mph - N/A   Clear
7:35 PM 44.6 °F 42.2 °F 33.8 °F 66% 30.26 in 10.0 mi ESE 4.6 mph - N/A   Clear
7:55 PM 44.6 °F 41.4 °F 33.8 °F 66% 30.27 in 10.0 mi ESE 5.8 mph - N/A   Clear
8:15 PM 44.6 °F 40.7 °F 33.8 °F 66% 30.28 in 10.0 mi ESE 6.9 mph - N/A   Clear
8:35 PM 44.6 °F 41.4 °F 33.8 °F 66% 30.29 in 10.0 mi SE 5.8 mph - N/A   Clear
8:55 PM 44.6 °F 41.4 °F 33.8 °F 66% 30.29 in 10.0 mi SE 5.8 mph - N/A   Clear
9:15 PM 42.8 °F 39.3 °F 33.8 °F 70% 30.30 in 10.0 mi ESE 5.8 mph - N/A   Clear
9:35 PM 44.6 °F 41.4 °F 33.8 °F 66% 30.30 in 10.0 mi ESE 5.8 mph - N/A   Clear
9:55 PM 42.8 °F 38.0 °F 33.8 °F 70% 30.30 in 10.0 mi ESE 8.1 mph - N/A   Clear
10:15 PM 42.8 °F 38.6 °F 33.8 °F 70% 30.30 in 10.0 mi ESE 6.9 mph - N/A   Clear
10:35 PM 42.8 °F 38.6 °F 33.8 °F 70% 30.30 in 10.0 mi ESE 6.9 mph - N/A   Clear
10:55 PM 42.8 °F 39.3 °F 33.8 °F 70% 30.31 in 10.0 mi ESE 5.8 mph - N/A   Clear
11:15 PM 41.0 °F 38.0 °F 33.8 °F 76% 30.31 in 10.0 mi ESE 4.6 mph - N/A   Clear
11:35 PM 42.8 °F 40.1 °F 33.8 °F 70% 30.31 in 10.0 mi ESE 4.6 mph - N/A   Clear
11:55 PM 42.8 °F 40.1 °F 33.8 °F 70% 30.31 in 10.0 mi SE 4.6 mph - N/A   Clear